GW6245 Weather Reports


Display with metric or nautical units.
time (UTC)temp
F
wind
direction
speed
MPH
gust
MPH
rain 1hr
in
rain 24hr
in
rain mn
in
humidity
%
barometer
mb
20260504223930 77 106 2.0 3.0 0.00 0.00 0.00 32 997.2
20260504223425 77 291 5.0 8.0 0.00 0.00 0.00 30 997.4
20260504222921 79 219 3.0 5.0 0.00 0.00 0.00 30 997.3
20260504222419 79 204 2.0 3.0 0.00 0.00 0.00 29 997.2
20260504221917 79 143 2.0 2.0 0.00 0.00 0.00 31 997.4
20260504221413 79 71 1.0 1.0 0.00 0.00 0.00 31 997.3
20260504220910 79 73 1.0 1.0 0.00 0.00 0.00 30 997.3
20260504220407 79 98 1.0 1.0 0.00 0.00 0.00 30 997.5
20260504215904 79 95 1.0 1.0 0.00 0.00 0.00 29 997.5
20260504215401 79 126 1.0 1.0 0.00 0.00 0.00 31 997.4
20260504214857 79 133 2.0 2.0 0.00 0.00 0.00 29 997.7
20260504214354 80 194 2.0 3.0 0.00 0.00 0.00 30 997.5
20260504213851 80 107 1.0 2.0 0.00 0.00 0.00 29 997.6
20260504213346 79 120 1.0 2.0 0.00 0.00 0.00 30 997.7
20260504212844 80 175 4.0 7.0 0.00 0.00 0.00 30 997.6
20260504212340 79 112 1.0 2.0 0.00 0.00 0.00 30 997.5
20260504211838 79 46 2.0 2.0 0.00 0.00 0.00 30 997.5
20260504211333 80 107 3.0 3.0 0.00 0.00 0.00 32 997.2
20260504210831 80 103 3.0 3.0 0.00 0.00 0.00 31 997.4
20260504210328 80 150 1.0 3.0 0.00 0.00 0.00 31 997.6
20260504205825 79 247 6.0 8.0 0.00 0.00 0.00 31 997.6
20260504205323 79 124 2.0 3.0 0.00 0.00 0.00 30 997.8
20260504204821 79 258 12.0 16.0 0.00 0.00 0.00 30 997.7
20260504204319 80 96 3.0 3.0 0.00 0.00 0.00 30 997.8
20260504203818 78 182 3.0 3.0 0.00 0.00 0.00 32 998.0
20260504203315 79 194 4.0 6.0 0.00 0.00 0.00 32 997.8
20260504202810 80 211 2.0 2.0 0.00 0.00 0.00 30 998.0
20260504202308 80 112 4.0 8.0 0.00 0.00 0.00 30 998.1
20260504201804 80 122 2.0 3.0 0.00 0.00 0.00 32 998.0
20260504201302 80 231 3.0 3.0 0.00 0.00 0.00 31 997.9
20260504200759 79 125 1.0 1.0 0.00 0.00 0.00 32 998.1
20260504200255 80 112 1.0 1.0 0.00 0.00 0.00 32 998.1
20260504195752 80 203 3.0 3.0 0.00 0.00 0.00 31 998.3
20260504195248 80 108 1.0 1.0 0.00 0.00 0.00 32 998.3
20260504194745 80 109 2.0 3.0 0.00 0.00 0.00 32 998.1
20260504194241 80 86 2.0 3.0 0.00 0.00 0.00 31 998.2
20260504193737 79 85 1.0 1.0 0.00 0.00 0.00 34 998.3
20260504193235 80 99 1.0 1.0 0.00 0.00 0.00 32 998.3
20260504192733 79 48 2.0 3.0 0.00 0.00 0.00 33 998.5
20260504192231 80 221 4.0 6.0 0.00 0.00 0.00 32 998.5
20260504191729 80 97 0.0 0.0 0.00 0.00 0.00 32 998.5
20260504191226 79 110 0.0 1.0 0.00 0.00 0.00 32 998.6
20260504190721 78 158 2.0 5.0 0.00 0.00 0.00 34 998.7
20260504190218 78 23 1.0 2.0 0.00 0.00 0.00 33 998.6
20260504185714 78 331 2.0 2.0 0.00 0.00 0.00 33 998.6
20260504185211 77 108 2.0 3.0 0.00 0.00 0.00 34 998.9
20260504184707 78 153 2.0 2.0 0.00 0.00 0.00 34 998.7
20260504184203 78 97 2.0 2.0 0.00 0.00 0.00 34 998.9
20260504183659 78 228 3.0 6.0 0.00 0.00 0.00 35 999.0
20260504183156 78 107 0.0 1.0 0.00 0.00 0.00 34 999.0
20260504182654 78 119 2.0 2.0 0.00 0.00 0.00 33 999.0
20260504182151 77 89 3.0 5.0 0.00 0.00 0.00 36 999.2
20260504181649 77 77 1.0 2.0 0.00 0.00 0.00 34 999.0
20260504181146 78 42 2.0 3.0 0.00 0.00 0.00 33 999.2
20260504180645 78 36 6.0 9.0 0.00 0.00 0.00 33 999.0
20260504180143 79 185 3.0 6.0 0.00 0.00 0.00 32 999.0
20260504175640 79 101 2.0 2.0 0.00 0.00 0.00 33 999.2
20260504175137 78 252 5.0 6.0 0.00 0.00 0.00 32 999.1
20260504174636 75 56 1.0 1.0 0.00 0.00 0.00 34 999.4
20260504174131 76 125 7.0 9.0 0.00 0.00 0.00 35 999.5
20260504173629 76 134 3.0 3.0 0.00 0.00 0.00 36 999.6
20260504173126 77 98 1.0 2.0 0.00 0.00 0.00 34 999.4
20260504172622 74 88 3.0 3.0 0.00 0.00 0.00 35 999.4
20260504172119 76 231 10.0 10.0 0.00 0.00 0.00 33 999.5
20260504171616 75 141 2.0 2.0 0.00 0.00 0.00 36 999.5
20260504171113 76 122 4.0 5.0 0.00 0.00 0.00 34 999.6
20260504170609 77 202 4.0 6.0 0.00 0.00 0.00 34 999.8
20260504170107 75 108 2.0 3.0 0.00 0.00 0.00 37 999.8
20260504150952 70 135 5.0 6.0 0.00 0.00 0.00 46 1001.1
20260504150449 71 87 1.0 2.0 0.00 0.00 0.00 43 1001.0
20260504140916 65 105 2.0 2.0 0.00 0.00 0.00 58 1000.9
20260504140412 65 126 4.0 6.0 0.00 0.00 0.00 59 1001.1
20260504130337 60 134 1.0 1.0 0.00 0.00 0.00 69 1001.3
20260504120300 54 90 1.0 1.0 0.00 0.00 0.00 77 1000.8
20260504110224 45 87 0.0 0.0 0.00 0.00 0.00 89 1000.9
20260504100148 44 90 0.0 0.0 0.00 0.00 0.00 91 1001.0
20260504090110 48 88 0.0 0.0 0.00 0.00 0.00 89 1000.5
20260504081541 49 89 0.0 0.0 0.00 0.00 0.00 84 1000.3
20260504081036 48 77 1.0 2.0 0.00 0.00 0.00 84 1000.4
20260504080533 49 81 0.0 0.0 0.00 0.00 0.00 84 1000.2
20260504050346 51 92 0.0 0.0 0.00 0.00 0.00 79 1000.7
20260504045843 50 92 0.0 0.0 0.00 0.00 0.00 80 1000.8
20260504045338 50 93 0.0 0.0 0.00 0.00 0.00 79 1000.8
20260504044835 50 97 0.0 0.0 0.00 0.00 0.00 78 1000.7
20260504044332 51 97 0.0 0.0 0.00 0.00 0.00 77 1000.8
20260504043830 52 97 0.0 0.0 0.00 0.00 0.00 74 1000.8
20260504043326 53 97 0.0 0.0 0.00 0.00 0.00 73 1000.7
20260504042824 53 97 0.0 0.0 0.00 0.00 0.00 73 1000.9
20260504042320 53 97 0.0 0.0 0.00 0.00 0.00 74 1001.0
20260504041816 53 97 0.0 0.0 0.00 0.00 0.00 73 1001.0
20260504041313 53 97 0.0 0.0 0.00 0.00 0.00 75 1001.0
20260504040809 51 97 0.0 0.0 0.00 0.00 0.00 75 1001.0
20260504040307 50 97 0.0 0.0 0.00 0.00 0.00 77 1001.0
20260504035802 51 97 0.0 0.0 0.00 0.00 0.00 75 1001.0
20260504035300 51 97 0.0 0.0 0.00 0.00 0.00 74 1001.1
20260504034757 52 97 0.0 0.0 0.00 0.00 0.00 74 1001.2
20260504034254 52 97 0.0 0.0 0.00 0.00 0.00 74 1001.0
20260504033751 53 97 0.0 0.0 0.00 0.00 0.00 73 1001.2
20260504033249 52 97 0.0 0.0 0.00 0.00 0.00 75 1001.1
20260504032746 53 97 0.0 0.0 0.00 0.00 0.00 72 1001.2
20260504032243 54 97 0.0 0.0 0.00 0.00 0.00 71 1001.1
20260504031739 53 98 0.0 0.0 0.00 0.00 0.00 73 1001.1
20260504031237 52 98 0.0 0.0 0.00 0.00 0.00 74 1001.0
20260504030732 52 98 0.0 0.0 0.00 0.00 0.00 70 1001.2
20260504030230 53 98 0.0 0.0 0.00 0.00 0.00 69 1001.0
20260504025726 53 98 0.0 0.0 0.00 0.00 0.00 69 1001.0
20260504025223 53 98 0.0 0.0 0.00 0.00 0.00 70 1001.1
20260504024720 54 98 0.0 0.0 0.00 0.00 0.00 69 1000.8
20260504024217 55 98 0.0 0.0 0.00 0.00 0.00 64 1000.9
20260504023714 55 98 0.0 0.0 0.00 0.00 0.00 66 1000.7
20260504023209 55 98 0.0 0.0 0.00 0.00 0.00 66 1000.7
20260504022706 54 98 0.0 0.0 0.00 0.00 0.00 67 1000.6
20260504022202 54 98 0.0 0.0 0.00 0.00 0.00 64 1000.6
20260504021700 54 98 0.0 0.0 0.00 0.00 0.00 63 1000.5
20260504021156 54 98 0.0 0.0 0.00 0.00 0.00 63 1000.3
20260504020653 55 98 0.0 0.0 0.00 0.00 0.00 61 1000.5
20260504020149 57 98 0.0 0.0 0.00 0.00 0.00 59 1000.4
20260504015646 57 98 0.0 0.0 0.00 0.00 0.00 60 1000.6
20260504015143 57 98 0.0 0.0 0.00 0.00 0.00 59 1000.4
20260504014638 58 98 0.0 0.0 0.00 0.00 0.00 59 1000.2
20260504014136 57 98 0.0 0.0 0.00 0.00 0.00 59 1000.4
20260504013633 57 98 0.0 0.0 0.00 0.00 0.00 64 1000.1
20260504013130 56 98 0.0 0.0 0.00 0.00 0.00 60 1000.3
20260504012627 57 98 0.0 0.0 0.00 0.00 0.00 57 1000.3
20260504012125 58 98 0.0 0.0 0.00 0.00 0.00 60 1000.2
20260504011622 58 98 0.0 0.0 0.00 0.00 0.00 57 1000.2
20260504011118 59 98 0.0 0.0 0.00 0.00 0.00 54 999.9
20260504010614 59 98 0.0 0.0 0.00 0.00 0.00 54 999.9
20260504010110 59 98 0.0 0.0 0.00 0.00 0.00 54 999.7
20260504005607 58 98 0.0 0.0 0.00 0.00 0.00 55 1000.0
20260504005104 58 98 0.0 0.0 0.00 0.00 0.00 53 999.9
20260504004602 59 98 0.0 0.0 0.00 0.00 0.00 52 999.7
20260504004059 60 98 0.0 0.0 0.00 0.00 0.00 49 999.7
20260504003555 61 98 0.0 0.0 0.00 0.00 0.00 48 999.7
20260504003052 61 98 0.0 0.0 0.00 0.00 0.00 47 999.7
20260504002549 61 98 0.0 0.0 0.00 0.00 0.00 50 999.5
20260504002046 62 98 0.0 0.0 0.00 0.00 0.00 45 999.6
20260504001544 64 98 0.0 0.0 0.00 0.00 0.00 43 999.5
20260504001040 64 98 0.0 0.0 0.00 0.00 0.00 46 999.4
20260504000537 65 98 0.0 0.0 0.00 0.00 0.00 43 999.5
20260504000035 64 98 0.0 0.0 0.00 0.00 0.00 47 999.3
20260503235533 64 98 0.0 0.0 0.00 0.00 0.00 46 999.4
20260503235029 64 98 0.0 0.0 0.00 0.00 0.00 44 999.3
20260503234527 64 99 0.0 0.0 0.00 0.00 0.00 45 999.4
20260503234025 64 99 0.0 0.0 0.00 0.00 0.00 41 999.4
20260503233521 64 98 0.0 0.0 0.00 0.00 0.00 41 999.4
20260503233017 64 93 0.0 0.0 0.00 0.00 0.00 42 999.2
20260503232514 65 98 0.0 0.0 0.00 0.00 0.00 41 999.3
20260503232012 65 99 0.0 0.0 0.00 0.00 0.00 40 999.2
20260503231510 66 100 0.0 0.0 0.00 0.00 0.00 39 999.3
20260503231006 66 67 1.0 1.0 0.00 0.00 0.00 40 999.3
20260503230503 67 132 0.0 1.0 0.00 0.00 0.00 35 999.6
20260503230000 67 126 1.0 1.0 0.00 0.00 0.00 35 999.4
20260503225456 67 110 0.0 1.0 0.00 0.00 0.00 35 999.5
20260503224952 67 103 1.0 1.0 0.00 0.00 0.00 35 999.5
20260503224449 68 104 0.0 1.0 0.00 0.00 0.00 36 999.6